Temperature
17 19 19 19 19 19 18 18 19 19 17 17 18 18 19 17 17 17 16 16 15 14 14 15 16 16 16 16 16 16 15 14 14 13 12 12 11 11 11 10 10 10 9 9
18 19 19 17 16 16 17 18 18 18 16 16 17 18 18 17 17 16 16 15 14 14 14 15 15 16 16 15 15 15 14 14 13 13 12 12 11 11 11 10 10 10 9 9
19 18 16 16 16 16 17 18 18 18 17 16 16 19 18 17 16 15 15 14 14 13 13 14 15 15 15 14 14 14 13 13 13 12 12 12 11 11 11 10 10 10 9 9
18 17 15 16 17 17 18 17 16 16 17 19 17 19 19 18 18 17 16 15 14 13 13 13 14 14 14 14 13 13 13 13 12 12 12 11 11 10 10 10 10 10 9 9
18 16 15 16 17 16 17 15 15 15 16 17 17 18 20 17 18 18 17 15 13 12 12 13 14 14 13 13 13 12 12 12 12 12 11 11 10 10 10 9 9 9 9 8
17 16 16 17 15 15 14 15 14 15 16 17 18 18 20 19 19 19 17 15 13 12 12 12 13 13 12 12 12 12 12 12 11 11 11 10 9 9 9 8 8 8 8 8
16 16 15 15 15 14 15 17 18 18 18 19 16 16 19 18 18 18 17 15 13 12 12 12 12 12 12 12 12 11 11 11 11 10 10 9 8 8 8 7 7 7 7 7
17 17 16 15 17 17 16 17 18 19 19 19 15 17 19 16 15 14 15 14 12 12 11 11 11 11 11 11 11 11 11 10 10 9 9 8 8 7 7 7 6 6 6 6
17 17 14 14 15 17 16 17 17 18 16 17 19 18 18 15 15 14 14 13 12 11 11 11 11 11 11 11 10 10 10 9 9 8 8 7 7 6 6 6 6 6 6 5
18 17 15 14 14 13 15 16 16 17 17 18 19 18 19 17 16 15 14 13 12 11 10 10 10 10 10 10 10 9 9 8 8 7 7 7 6 6 6 5 5 5 5 5
17 17 15 14 15 16 14 15 16 17 17 18 18 19 18 18 16 16 15 14 12 11 10 10 10 10 10 9 9 9 8 8 7 7 6 6 6 5 5 5 5 4 4 4
16 17 17 15 14 14 16 16 16 17 17 16 17 19 16 16 15 15 14 12 11 11 10 10 9 9 9 9 8 8 7 7 6 6 6 5 5 5 4 4 4 4 4 3
14 16 16 15 14 13 14 14 15 16 16 16 16 18 14 14 14 13 13 12 11 10 9 9 9 9 8 8 8 7 7 6 6 5 5 5 4 4 4 4 3 3 3 2
15 16 17 18 17 16 14 13 13 15 16 16 16 18 16 15 14 13 12 11 11 10 9 8 8 8 7 7 7 6 6 5 5 5 4 4 4 3 3 3 3 2 2 2
15 16 16 15 14 14 15 14 13 14 16 16 17 17 17 16 15 14 12 11 10 9 8 8 8 7 7 6 6 5 5 5 4 4 4 3 3 3 3 2 2 2 1 1
14 15 14 14 12 12 13 14 14 14 15 15 16 16 16 14 12 12 11 10 9 8 8 8 7 6 6 6 5 5 4 4 4 4 3 3 2 2 2 1 1 1 0 -0
13 14 14 15 12 12 14 15 14 13 13 14 15 15 14 12 11 11 10 9 8 8 7 7 6 6 5 5 5 4 4 4 4 3 3 2 2 1 1 1 0 -0 -1 -1
13 14 14 13 12 12 16 13 13 13 13 13 13 12 12 11 10 9 9 8 8 7 7 6 6 5 5 4 4 4 4 3 3 2 2 1 1 1 0 -0 -1 -1 -2 -2
12 13 12 12 13 14 15 12 12 12 13 12 12 11 10 8 8 8 7 7 7 6 6 6 5 5 4 4 4 3 3 3 2 2 1 1 0 -0 -0 -1 -1 -2 -2 -3
9 11 13 11 11 12 15 12 10 12 13 12 11 11 9 8 11 11 7 7 6 6 5 5 5 4 4 3 3 3 2 2 1 1 1 1 -0 -1 -1 -1 -2 -2 -3 -3
9 10 11 12 11 14 13 10 10 12 14 10 10 9 9 9 10 8 7 6 6 5 5 4 4 4 3 3 2 2 2 1 1 1 0 0 -0 -1 -1 -2 -2 -3 -4 -4
11 11 11 11 11 12 11 10 12 13 9 9 9 8 8 8 7 7 6 6 5 5 4 4 3 3 3 2 2 1 1 1 0 0 -0 -1 -1 -1 -2 -3 -3 -4 -4 -4
10 12 12 12 13 11 9 10 9 9 8 8 8 8 8 7 6 6 5 5 4 4 4 3 3 3 3 2 1 1 1 0 -0 -0 -1 -1 -2 -2 -3 -3 -4 -4 -5 -5
9 8 10 10 10 9 8 8 8 8 8 8 8 7 7 6 6 5 5 4 4 3 3 3 2 2 2 1 1 0 0 -0 -1 -1 -1 -2 -3 -3 -4 -4 -5 -5 -5 -6
11 8 9 10 9 7 7 7 7 8 8 7 7 6 6 5 5 4 4 4 3 3 3 2 2 1 1 1 1 0 -0 -1 -1 -2 -2 -3 -4 -4 -5 -5 -5 -5 -5 -6
8 8 10 12 10 9 9 8 7 7 7 6 6 5 5 4 4 4 3 3 3 2 2 2 1 1 1 0 -0 -0 -1 -2 -2 -2 -3 -3 -4 -5 -5 -6 -6 -5 -6 -6
Wind_Speed
2 6 8 8 8 6 5 7 9 7 2 4 7 9 7 2 5 6 7 8 9 11 11 12 12 11 11 9 7 6 5 5 5 5 5 5 6 7 8 10 13 14 15 15
5 10 8 2 4 5 7 8 10 6 1 4 7 9 4 4 7 6 6 7 9 10 11 12 12 12 12 11 9 7 6 5 5 4 3 3 3 4 5 7 10 13 14 15
13 3 4 5 5 6 8 10 9 6 3 3 5 4 5 6 6 6 5 6 8 9 10 11 12 13 12 11 9 7 6 5 4 4 3 2 2 3 4 5 6 8 11 13
9 4 5 6 7 8 8 6 7 5 5 3 3 3 7 10 10 8 8 7 8 8 9 10 11 12 11 10 8 8 7 6 4 3 2 3 3 4 4 5 5 7 8 10
7 6 6 8 6 8 3 3 3 3 5 6 5 6 6 10 14 13 11 9 8 8 9 10 10 10 10 9 8 8 8 7 4 2 1 2 3 4 5 6 7 7 7 9
5 3 4 3 2 4 6 4 3 2 3 5 4 6 5 9 15 16 13 11 10 9 9 10 9 9 9 8 8 7 8 7 5 3 2 1 3 5 6 7 8 7 6 7
7 6 5 4 5 5 6 5 4 4 5 3 3 5 5 4 6 11 14 13 11 10 10 10 10 9 8 8 7 6 7 6 5 4 3 3 4 5 7 8 8 9 8 8
8 7 9 8 8 8 8 6 5 4 3 1 3 6 1 3 2 4 9 12 11 10 9 9 8 8 7 6 6 6 6 5 5 4 4 4 4 5 6 8 9 10 9 10
8 5 3 3 2 5 6 6 2 2 2 4 5 4 4 3 4 6 10 12 11 10 9 9 8 6 6 5 5 4 4 4 4 4 5 5 6 7 8 10 10 9 10 10
7 5 4 4 4 2 2 5 4 4 4 5 4 5 4 7 8 9 11 12 11 10 9 8 7 5 4 4 3 3 3 3 4 5 5 6 8 8 9 10 11 12 13 13
8 6 5 5 8 9 6 5 4 3 3 4 4 2 1 5 7 10 11 10 9 9 9 8 6 5 3 2 1 1 2 3 4 6 7 8 9 10 11 11 12 12 13 14
8 6 5 4 1 2 6 7 8 6 5 4 5 3 4 3 4 7 8 7 7 8 8 7 6 4 3 1 0 1 2 4 5 6 8 9 10 11 12 12 13 14 14 15
9 7 6 4 4 4 5 5 7 4 3 6 6 5 4 4 5 5 6 6 6 7 7 6 5 3 2 1 2 3 4 5 6 8 9 11 11 12 13 14 14 14 15 16
6 7 8 6 2 7 7 8 10 10 7 9 12 12 6 7 7 6 5 6 6 7 7 5 4 3 2 2 3 5 6 6 7 9 10 11 12 13 14 14 15 15 16 16
6 6 6 3 1 4 7 10 13 16 15 12 13 14 13 10 9 7 6 5 6 6 6 4 3 3 3 4 5 6 7 8 8 10 11 12 13 13 14 14 15 16 16 16
5 5 4 3 2 4 7 13 16 17 17 19 19 18 9 4 6 7 7 6 6 6 5 3 3 4 5 5 6 7 8 9 10 11 12 12 13 13 14 15 16 16 17 17
8 7 6 5 2 3 10 14 17 12 12 13 16 11 5 6 8 7 6 6 5 4 3 3 3 4 5 6 7 8 9 10 10 11 12 12 13 14 15 16 16 17 17 17
8 8 4 3 3 9 5 2 6 11 11 13 9 5 7 7 5 4 4 5 4 3 2 3 4 5 6 6 7 8 9 10 11 12 12 13 13 15 16 16 17 17 17 16
3 7 5 5 6 9 7 4 6 8 8 10 12 9 8 6 4 4 4 4 3 2 2 3 4 5 6 7 7 8 10 10 11 12 13 13 14 15 16 17 18 17 17 17
2 3 5 5 6 8 3 4 4 4 7 7 11 11 10 9 6 5 6 4 2 1 2 3 4 6 7 7 7 9 11 11 12 13 14 14 15 16 17 17 18 17 16 17
6 6 9 10 9 9 2 6 7 6 3 8 10 11 11 9 3 4 5 3 2 2 3 4 5 7 7 8 8 10 12 13 13 13 14 15 15 16 16 17 16 16 16 17
10 10 10 9 9 10 7 9 8 3 4 8 9 9 8 6 4 3 3 2 2 3 4 5 6 8 8 8 9 11 13 14 13 14 15 16 16 15 14 16 16 16 16 16
10 8 6 10 7 1 7 5 2 4 7 7 7 6 7 6 4 4 3 3 4 4 5 6 7 9 10 9 10 13 14 14 14 15 16 16 16 15 15 15 16 15 14 13
7 3 5 6 7 5 5 5 4 5 6 6 6 6 6 5 4 4 3 4 4 5 6 7 8 10 12 12 12 13 14 14 15 16 17 16 16 16 15 13 13 13 13 13
6 9 6 7 4 4 7 9 8 7 7 7 6 5 5 5 4 4 4 5 5 6 7 8 9 11 13 13 14 14 14 14 15 16 16 15 14 15 15 14 13 14 14 15
7 9 9 8 7 7 6 10 11 10 8 8 7 5 4 4 4 4 5 6 7 8 8 9 11 12 14 15 15 15 14 14 15 15 15 13 13 13 13 14 15 15 17 22
Wind_Direction
159 225 244 250 242 265 264 264 272 281 307 284 271 278 290 287 161 135 109 90 77 67 59 55 58 65 74 79 92 110 136 158 170 178 198 218 234 241 244 247 251 252 251 250
212 245 257 233 187 214 236 258 270 274 223 272 287 284 274 175 156 136 118 101 90 84 73 63 64 66 68 73 79 91 109 137 163 177 193 225 253 262 264 260 258 255 255 254
235 246 140 164 183 211 233 247 265 276 284 226 288 243 172 159 155 140 125 113 101 91 85 78 72 69 70 69 70 79 91 115 146 169 183 206 247 263 262 266 267 265 261 258
237 212 181 214 227 226 252 243 244 250 274 265 282 253 182 175 177 170 153 136 118 106 98 90 84 76 71 70 74 79 86 94 113 156 196 232 269 289 302 304 292 288 275 266
218 189 193 218 231 208 225 109 184 238 255 268 227 243 191 179 192 185 169 152 135 121 112 101 92 87 81 78 79 82 84 83 88 110 176 268 287 300 306 307 299 298 289 274
236 192 216 214 108 166 140 130 127 187 225 245 210 225 209 190 202 188 175 164 152 138 126 114 107 101 92 86 82 82 81 76 73 73 58 332 318 316 315 316 313 309 301 290
227 219 201 170 150 154 186 220 240 224 217 228 147 235 245 163 191 193 180 170 160 151 142 132 124 112 101 91 84 81 77 70 62 54 33 1 332 319 315 316 313 309 304 300
218 218 192 194 211 197 197 226 251 271 264 250 193 238 204 118 164 197 183 167 161 160 152 143 133 123 111 98 87 77 69 60 47 32 10 347 330 317 313 311 307 302 300 299
215 208 118 169 192 190 177 207 266 271 284 271 241 251 254 158 177 173 170 168 170 168 163 155 145 134 120 105 86 71 60 48 29 9 350 338 329 319 314 309 304 300 297 298
209 195 155 141 136 51 263 157 167 212 249 259 253 243 220 180 175 166 169 173 172 170 169 165 158 145 128 110 92 70 48 26 3 348 341 327 322 318 312 307 304 302 301 300
198 198 162 180 207 197 165 181 201 205 256 264 271 243 143 179 172 173 173 175 175 176 175 171 164 153 141 124 93 45 18 355 344 336 329 322 320 316 311 306 304 304 301 300
186 201 194 187 109 295 220 208 194 218 222 232 271 270 108 177 167 172 173 173 177 176 173 171 167 162 159 157 337 340 335 331 329 325 320 317 314 312 309 308 308 306 303 301
161 186 181 177 186 189 211 206 208 218 220 219 238 249 119 157 164 171 176 175 174 174 174 175 175 180 198 244 288 307 312 316 319 317 314 313 313 312 310 310 309 306 303 301
171 195 222 231 177 171 193 198 197 201 222 233 237 252 212 198 193 189 186 184 180 178 179 182 192 212 244 275 292 301 306 311 313 312 311 310 311 311 309 307 305 304 302 300
194 216 223 247 150 184 212 207 200 214 230 244 256 257 255 237 224 218 199 185 182 181 184 192 216 249 271 285 294 301 305 309 311 309 308 308 309 308 306 305 304 303 302 299
191 196 184 215 191 230 249 239 226 229 239 247 260 268 272 225 200 191 184 179 185 189 195 210 241 268 283 293 298 300 304 308 308 305 304 306 306 305 305 305 305 304 302 301
175 168 187 230 176 259 256 243 226 221 223 231 246 256 191 182 184 183 182 186 191 193 209 240 264 279 290 297 299 300 303 306 304 301 302 304 304 305 306 306 305 304 304 303
171 172 189 190 183 236 251 109 212 220 234 224 232 212 182 173 158 163 182 188 184 190 230 262 281 289 294 298 299 299 300 301 300 300 301 303 305 305 306 306 305 306 305 303
191 168 166 189 235 264 266 204 185 205 245 217 212 196 172 149 158 180 162 165 171 199 253 280 288 291 292 296 300 300 298 299 299 300 303 306 305 304 305 305 306 307 305 303
106 190 187 188 219 246 251 138 160 183 252 194 189 181 168 167 205 196 159 165 181 226 268 286 292 293 292 299 303 297 298 300 301 304 305 304 303 302 302 304 305 305 304 302
165 188 210 218 233 258 219 144 160 211 272 155 174 172 171 188 198 123 148 173 203 260 281 288 290 291 295 300 297 294 297 299 303 304 301 301 301 301 301 302 302 303 303 302
180 184 199 202 219 243 157 161 198 230 117 153 163 168 175 175 147 152 171 199 241 272 281 289 292 295 299 298 293 293 297 302 304 302 300 300 301 302 300 301 302 304 304 303
207 203 197 201 216 38 168 196 184 144 157 161 162 163 167 172 184 188 212 245 264 274 283 289 292 296 298 297 295 294 299 304 303 300 299 300 301 300 300 301 303 305 303 301
211 199 204 231 243 222 207 201 181 172 164 154 153 156 166 180 190 210 236 256 271 279 285 290 293 295 299 303 300 295 298 301 298 298 300 301 301 301 301 300 299 299 299 299
184 175 203 235 238 210 214 203 181 159 146 143 143 153 168 179 203 228 251 266 276 281 284 287 289 292 296 301 300 300 300 300 298 298 299 300 300 299 299 298 295 295 291 290
185 186 195 232 208 198 199 185 172 162 161 159 155 158 169 194 219 242 260 270 277 282 287 288 288 292 296 300 299 300 301 299 297 298 300 300 299 298 297 299 299 289 287 292
Height
1546 1545 1542 1541 1542 1543 1543 1543 1541 1539 1541 1541 1536 1533 1532 1534 1534 1535 1535 1535 1534 1532 1531 1529 1528 1527 1527 1527 1527 1528 1529 1530 1531 1532 1533 1533 1534 1534 1534 1534 1534 1534 1534 1533
1544 1541 1539 1542 1544 1545 1544 1543 1539 1537 1542 1540 1535 1532 1530 1532 1533 1534 1535 1535 1535 1534 1533 1531 1530 1530 1529 1529 1529 1529 1530 1531 1531 1532 1533 1533 1533 1533 1532 1532 1531 1530 1529 1528
1538 1538 1541 1542 1544 1544 1543 1540 1537 1538 1538 1540 1538 1527 1528 1531 1533 1535 1535 1535 1535 1535 1534 1533 1533 1532 1532 1531 1531 1531 1532 1532 1532 1533 1533 1533 1532 1531 1531 1530 1528 1527 1525 1524
1536 1538 1541 1540 1540 1539 1538 1537 1540 1541 1538 1531 1536 1526 1523 1526 1530 1532 1534 1535 1535 1535 1535 1534 1534 1534 1534 1533 1533 1533 1534 1533 1533 1533 1533 1532 1531 1530 1529 1527 1525 1524 1522 1520
1532 1536 1538 1537 1535 1537 1536 1540 1541 1540 1538 1534 1533 1529 1517 1524 1525 1527 1531 1534 1535 1535 1535 1535 1535 1535 1535 1535 1535 1535 1535 1534 1534 1533 1532 1531 1530 1528 1526 1524 1522 1520 1518 1515
1531 1534 1534 1533 1536 1538 1540 1541 1542 1541 1537 1532 1527 1527 1515 1516 1517 1521 1528 1532 1534 1534 1535 1535 1535 1536 1536 1536 1536 1536 1535 1534 1533 1532 1531 1529 1528 1525 1523 1521 1518 1516 1513 1511
1531 1531 1532 1533 1535 1539 1538 1535 1534 1531 1529 1522 1530 1529 1513 1512 1516 1518 1524 1529 1532 1533 1534 1534 1535 1536 1536 1536 1536 1535 1535 1534 1532 1531 1529 1527 1525 1522 1520 1517 1514 1511 1508 1506
1526 1525 1527 1529 1528 1529 1531 1531 1530 1528 1523 1520 1530 1523 1510 1516 1519 1521 1523 1527 1529 1532 1533 1533 1534 1535 1535 1535 1535 1534 1533 1532 1530 1528 1526 1524 1521 1519 1516 1513 1510 1507 1503 1500
1519 1522 1527 1528 1529 1527 1530 1528 1528 1527 1531 1526 1515 1514 1510 1516 1517 1519 1521 1525 1527 1529 1531 1532 1533 1533 1534 1534 1533 1532 1531 1529 1527 1525 1523 1521 1518 1515 1512 1509 1505 1501 1498 1493
1514 1520 1525 1528 1529 1531 1528 1526 1530 1528 1527 1522 1514 1512 1505 1509 1512 1516 1519 1522 1525 1527 1529 1530 1531 1531 1532 1531 1531 1530 1528 1526 1524 1522 1520 1517 1514 1511 1507 1504 1500 1496 1491 1487
1513 1516 1525 1527 1525 1522 1530 1530 1525 1524 1524 1521 1517 1508 1504 1505 1509 1513 1516 1520 1523 1525 1526 1527 1528 1529 1529 1529 1528 1527 1525 1523 1521 1518 1515 1512 1509 1506 1502 1498 1493 1489 1484 1479
1511 1511 1515 1520 1524 1525 1521 1519 1521 1522 1521 1523 1517 1510 1507 1508 1511 1513 1516 1519 1521 1522 1524 1525 1526 1526 1526 1526 1525 1523 1521 1519 1517 1514 1511 1507 1504 1500 1496 1491 1487 1482 1476 1471
1509 1510 1515 1519 1525 1526 1522 1522 1521 1520 1519 1519 1519 1508 1509 1510 1511 1513 1515 1517 1519 1520 1521 1522 1523 1523 1523 1523 1521 1519 1517 1515 1512 1509 1505 1502 1498 1494 1489 1484 1479 1474 1468 1463
1506 1505 1504 1505 1504 1509 1515 1519 1520 1518 1516 1513 1509 1501 1506 1507 1509 1512 1514 1515 1516 1518 1519 1520 1520 1521 1520 1519 1517 1515 1513 1510 1507 1504 1500 1496 1492 1487 1482 1477 1472 1466 1461 1455
1504 1502 1503 1505 1509 1509 1508 1510 1515 1513 1505 1505 1498 1499 1497 1501 1505 1508 1511 1513 1514 1515 1516 1517 1517 1517 1516 1515 1513 1511 1508 1505 1502 1498 1494 1490 1485 1481 1475 1470 1464 1459 1453 1447
1502 1503 1506 1508 1512 1512 1511 1506 1506 1507 1503 1500 1498 1496 1496 1501 1504 1506 1508 1510 1511 1513 1513 1514 1514 1513 1513 1511 1509 1506 1503 1500 1496 1492 1488 1484 1479 1474 1468 1462 1457 1451 1445 1439
1500 1502 1505 1504 1513 1510 1504 1493 1495 1498 1496 1496 1495 1493 1497 1500 1502 1504 1506 1508 1509 1510 1510 1511 1510 1510 1508 1506 1504 1501 1498 1495 1491 1486 1482 1477 1472 1467 1461 1455 1449 1443 1437 1431
1498 1499 1502 1506 1511 1513 1486 1491 1490 1491 1491 1493 1492 1494 1497 1499 1501 1503 1504 1505 1506 1507 1507 1507 1507 1505 1504 1502 1499 1496 1493 1489 1485 1480 1476 1471 1465 1459 1454 1448 1442 1436 1429 1423
1498 1498 1502 1506 1501 1492 1485 1488 1490 1491 1487 1487 1489 1492 1496 1499 1501 1502 1502 1503 1504 1504 1504 1504 1503 1501 1499 1497 1494 1491 1487 1483 1479 1474 1469 1464 1458 1452 1446 1440 1434 1428 1422 1416
1501 1498 1499 1504 1504 1497 1480 1486 1488 1489 1485 1484 1486 1490 1494 1497 1497 1497 1499 1500 1501 1501 1501 1500 1499 1497 1495 1492 1489 1485 1481 1477 1472 1468 1463 1457 1452 1446 1439 1433 1427 1421 1415 1408
1498 1499 1496 1495 1496 1483 1480 1485 1488 1488 1478 1482 1484 1487 1491 1493 1494 1496 1497 1497 1498 1498 1497 1496 1494 1492 1490 1487 1483 1479 1475 1471 1466 1461 1456 1450 1445 1439 1432 1426 1420 1414 1408 1401
1485 1488 1490 1490 1493 1486 1480 1483 1482 1478 1480 1481 1484 1486 1489 1491 1492 1493 1494 1495 1495 1494 1493 1492 1490 1488 1485 1481 1477 1473 1469 1465 1460 1454 1448 1443 1437 1431 1425 1419 1413 1407 1401 1394
1479 1476 1475 1477 1475 1475 1476 1476 1477 1478 1480 1481 1483 1485 1487 1489 1490 1491 1491 1492 1491 1490 1489 1487 1485 1482 1479 1476 1472 1467 1463 1458 1452 1447 1441 1436 1430 1424 1419 1413 1406 1400 1395 1388
1475 1477 1476 1476 1472 1474 1474 1474 1475 1477 1478 1480 1482 1484 1485 1486 1487 1488 1488 1488 1487 1486 1484 1482 1480 1476 1473 1470 1466 1461 1456 1451 1445 1439 1434 1428 1422 1416 1411 1406 1400 1394 1388 1382
1465 1472 1472 1470 1470 1472 1471 1471 1473 1474 1476 1478 1480 1482 1483 1484 1485 1485 1485 1484 1483 1482 1480 1477 1474 1471 1467 1463 1459 1455 1449 1444 1438 1432 1426 1420 1415 1409 1403 1398 1393 1387 1382 1377
1463 1464 1465 1461 1462 1465 1466 1467 1470 1472 1474 1476 1478 1479 1481 1481 1482 1482 1481 1480 1479 1477 1474 1471 1468 1465 1461 1457 1452 1448 1443 1437 1431 1425 1419 1413 1408 1402 1396 1390 1384 1379 1375 1369